Location: Unspecified
(43.4680°N, 87.1740°E)
Time: 05:47:49
(UTC+00:00)

Cosmos 1140 Rocket - Pass Details

Date: 17 April 2021
Orbit: 744 x 767 km, 74.1° (Epoch: 16 May)

Event Time Altitude Azimuth Distance (km) Brightness Sun altitude
Exits shadow 15:20:17 52° 83° (E) 927 3.6 -23.4°
Drops below altitude 10° 15:24:47 10° 29° (NNE) 2,267 6.1 -24.0°
Sets 15:27:11 0° 25° (NNE) 3,196 7.0 -24.3°
